Time,TemperatureF,DewpointF,PressureIn,WindDirection,WindDirectionDegrees,WindSpeedMPH,WindSpeedGustMPH,Humidity,HourlyPrecipIn,Conditions,Clouds,dailyrainin,SoftwareType,DateUTC
2013-03-31 00:00:00,43.7,27.4,29.93,SSE,157,0.0,0.0,52,0.00,,,0.00,WUHU21623XXSP,2013-03-31 04:00:00,
2013-03-31 00:05:00,43.5,27.0,29.92,SSE,157,0.0,0.0,52,0.00,,,0.00,WUHU21623XXSP,2013-03-31 04:05:00,
2013-03-31 00:10:00,43.5,27.0,29.92,SSE,157,0.0,0.0,52,0.00,,,0.00,WUHU21623XXSP,2013-03-31 04:10:00,
2013-03-31 00:15:00,43.3,26.9,29.92,SSE,157,0.0,0.0,52,0.00,,,0.00,WUHU21623XXSP,2013-03-31 04:15:00,
2013-03-31 00:20:00,43.3,27.3,29.92,SSE,157,0.0,0.0,53,0.00,,,0.00,WUHU21623XXSP,2013-03-31 04:20:00,
2013-03-31 00:25:00,43.2,27.6,29.92,SSE,157,0.0,0.0,54,0.00,,,0.00,WUHU21623XXSP,2013-03-31 04:25:00,
2013-03-31 00:30:00,43.0,27.4,29.91,SSE,157,2.7,2.7,54,0.00,,,0.00,WUHU21623XXSP,2013-03-31 04:30:00,
2013-03-31 00:35:00,43.0,27.4,29.91,SSE,157,0.0,2.7,54,0.00,,,0.00,WUHU21623XXSP,2013-03-31 04:35:00,
2013-03-31 00:40:00,43.0,27.8,29.91,SSE,157,0.0,0.0,55,0.00,,,0.00,WUHU21623XXSP,2013-03-31 04:40:00,
2013-03-31 00:45:00,42.6,27.5,29.91,SSE,157,0.0,0.0,55,0.00,,,0.00,WUHU21623XXSP,2013-03-31 04:45:00,
2013-03-31 00:50:00,42.6,27.5,29.91,SSE,157,0.0,0.0,55,0.00,,,0.00,WUHU21623XXSP,2013-03-31 04:50:00,
2013-03-31 00:55:00,42.4,26.9,29.91,SSE,157,0.0,0.0,54,0.00,,,0.00,WUHU21623XXSP,2013-03-31 04:55:00,
2013-03-31 01:00:00,42.1,27.0,29.90,SSE,157,0.0,0.0,55,0.00,,,0.00,WUHU21623XXSP,2013-03-31 05:00:00,
2013-03-31 01:05:00,41.9,26.8,29.90,SSE,157,0.0,0.0,55,0.00,,,0.00,WUHU21623XXSP,2013-03-31 05:05:00,
2013-03-31 01:10:00,41.7,26.7,29.90,SSE,157,0.0,0.0,56,0.00,,,0.00,WUHU21623XXSP,2013-03-31 05:10:00,
2013-03-31 01:15:00,41.5,26.9,29.90,SSE,157,0.0,0.0,56,0.00,,,0.00,WUHU21623XXSP,2013-03-31 05:15:00,
2013-03-31 01:20:00,41.4,26.7,29.90,SSE,157,0.0,0.0,56,0.00,,,0.00,WUHU21623XXSP,2013-03-31 05:20:00,
2013-03-31 01:25:00,41.0,26.6,29.89,SSE,157,0.0,0.0,56,0.00,,,0.00,WUHU21623XXSP,2013-03-31 05:25:00,
2013-03-31 01:30:00,40.8,26.2,29.89,SSE,157,0.0,0.0,56,0.00,,,0.00,WUHU21623XXSP,2013-03-31 05:30:00,
2013-03-31 01:35:00,40.6,26.1,29.89,SSE,157,0.0,0.0,56,0.00,,,0.00,WUHU21623XXSP,2013-03-31 05:35:00,
2013-03-31 01:40:00,40.3,26.3,29.89,SSE,157,0.0,0.0,57,0.00,,,0.00,WUHU21623XXSP,2013-03-31 05:40:00,
2013-03-31 01:45:00,40.1,26.4,29.88,SSE,157,0.0,0.0,58,0.00,,,0.00,WUHU21623XXSP,2013-03-31 05:45:00,
2013-03-31 01:50:00,39.9,26.3,29.88,SSE,157,0.0,0.0,58,0.00,,,0.00,WUHU21623XXSP,2013-03-31 05:50:00,
2013-03-31 01:55:00,39.9,26.7,29.88,SSE,157,0.0,0.0,59,0.00,,,0.00,WUHU21623XXSP,2013-03-31 05:55:00,
2013-03-31 02:00:00,39.9,26.7,29.88,SSE,157,1.6,1.6,59,0.00,,,0.00,WUHU21623XXSP,2013-03-31 06:00:00,
2013-03-31 02:05:00,39.9,27.1,29.87,SSE,157,0.0,1.6,60,0.00,,,0.00,WUHU21623XXSP,2013-03-31 06:05:00,
2013-03-31 02:10:00,39.9,27.5,29.87,SSE,157,0.0,1.6,61,0.00,,,0.00,WUHU21623XXSP,2013-03-31 06:10:00,
2013-03-31 02:15:00,39.9,27.5,29.87,SSE,157,0.9,0.9,61,0.00,,,0.00,WUHU21623XXSP,2013-03-31 06:15:00,
2013-03-31 02:20:00,40.1,27.5,29.86,South,180,0.0,0.9,61,0.00,,,0.00,WUHU21623XXSP,2013-03-31 06:20:00,
2013-03-31 02:25:00,40.3,27.9,29.86,SSE,157,0.0,0.0,61,0.00,,,0.00,WUHU21623XXSP,2013-03-31 06:25:00,
2013-03-31 02:30:00,40.5,27.9,29.86,SSE,157,0.0,0.0,62,0.00,,,0.00,WUHU21623XXSP,2013-03-31 06:30:00,
2013-03-31 02:35:00,40.6,28.2,29.85,SSE,157,0.0,0.0,61,0.00,,,0.00,WUHU21623XXSP,2013-03-31 06:35:00,
2013-03-31 02:40:00,40.8,28.4,29.85,SSE,157,0.0,0.0,61,0.00,,,0.00,WUHU21623XXSP,2013-03-31 06:40:00,
2013-03-31 02:45:00,40.8,28.4,29.85,SSE,157,0.0,0.0,61,0.00,,,0.00,WUHU21623XXSP,2013-03-31 06:45:00,
2013-03-31 02:50:00,41.0,28.6,29.85,SSE,157,0.0,0.0,61,0.00,,,0.00,WUHU21623XXSP,2013-03-31 06:50:00,
2013-03-31 02:55:00,41.0,28.6,29.85,SSE,157,0.0,0.0,61,0.00,,,0.00,WUHU21623XXSP,2013-03-31 06:55:00,
2013-03-31 03:00:00,41.2,28.8,29.84,SSE,157,3.1,3.1,61,0.00,,,0.00,WUHU21623XXSP,2013-03-31 07:00:00,
2013-03-31 03:05:00,41.2,28.8,29.84,SSE,157,0.0,3.1,61,0.00,,,0.00,WUHU21623XXSP,2013-03-31 07:05:00,
2013-03-31 03:10:00,41.2,28.8,29.84,SSE,157,4.7,4.7,61,0.00,,,0.00,WUHU21623XXSP,2013-03-31 07:10:00,
2013-03-31 03:15:00,41.2,28.8,29.83,SSE,157,0.0,4.7,61,0.00,,,0.00,WUHU21623XXSP,2013-03-31 07:15:00,
2013-03-31 03:20:00,41.2,28.8,29.83,SSE,157,0.0,0.0,61,0.00,,,0.00,WUHU21623XXSP,2013-03-31 07:20:00,
2013-03-31 03:25:00,41.2,28.8,29.83,SSE,157,2.0,2.0,61,0.00,,,0.00,WUHU21623XXSP,2013-03-31 07:25:00,
2013-03-31 03:30:00,41.2,28.8,29.83,SSE,157,0.0,2.0,61,0.00,,,0.00,WUHU21623XXSP,2013-03-31 07:30:00,
2013-03-31 03:35:00,41.2,28.8,29.83,SSE,157,0.0,0.0,61,0.00,,,0.00,WUHU21623XXSP,2013-03-31 07:35:00,
2013-03-31 03:40:00,41.2,28.8,29.83,SSE,157,0.0,0.0,61,0.00,,,0.00,WUHU21623XXSP,2013-03-31 07:40:00,
2013-03-31 03:45:00,41.2,28.8,29.82,SSE,157,0.0,0.0,61,0.00,,,0.00,WUHU21623XXSP,2013-03-31 07:45:00,
2013-03-31 03:50:00,41.2,28.8,29.82,South,180,0.0,0.0,61,0.00,,,0.00,WUHU21623XXSP,2013-03-31 07:50:00,
2013-03-31 03:55:00,41.2,28.8,29.82,South,180,0.0,1.1,61,0.00,,,0.00,WUHU21623XXSP,2013-03-31 07:55:00,
2013-03-31 04:00:00,41.2,28.8,29.81,SSE,157,0.0,1.1,61,0.00,,,0.00,WUHU21623XXSP,2013-03-31 08:00:00,
2013-03-31 04:05:00,41.0,28.6,29.81,South,180,0.9,5.1,61,0.00,,,0.00,WUHU21623XXSP,2013-03-31 08:05:00,
2013-03-31 04:10:00,40.8,28.4,29.81,South,180,0.0,5.1,61,0.00,,,0.00,WUHU21623XXSP,2013-03-31 08:10:00,
2013-03-31 04:15:00,40.8,28.4,29.80,South,180,0.0,0.0,61,0.00,,,0.00,WUHU21623XXSP,2013-03-31 08:15:00,
2013-03-31 04:20:00,40.8,28.4,29.80,SSE,157,0.0,0.0,61,0.00,,,0.00,WUHU21623XXSP,2013-03-31 08:20:00,
2013-03-31 04:25:00,40.8,28.4,29.80,SSE,157,0.0,0.0,61,0.00,,,0.00,WUHU21623XXSP,2013-03-31 08:25:00,
2013-03-31 04:30:00,40.8,28.4,29.80,SSE,157,0.0,0.0,61,0.00,,,0.00,WUHU21623XXSP,2013-03-31 08:30:00,
2013-03-31 04:35:00,40.8,28.4,29.80,South,180,0.0,0.0,61,0.00,,,0.00,WUHU21623XXSP,2013-03-31 08:35:00,
2013-03-31 04:40:00,40.8,28.4,29.80,SSE,157,0.0,2.7,61,0.00,,,0.00,WUHU21623XXSP,2013-03-31 08:40:00,
2013-03-31 04:45:00,40.8,28.4,29.80,SSE,157,0.0,2.7,61,0.00,,,0.00,WUHU21623XXSP,2013-03-31 08:45:00,
2013-03-31 04:50:00,41.0,28.6,29.80,SSE,157,0.0,0.0,61,0.00,,,0.00,WUHU21623XXSP,2013-03-31 08:50:00,
2013-03-31 04:55:00,41.2,28.8,29.79,South,180,0.0,2.9,61,0.00,,,0.00,WUHU21623XXSP,2013-03-31 08:55:00,
2013-03-31 05:00:00,41.4,28.9,29.79,SSE,157,0.0,2.9,61,0.00,,,0.00,WUHU21623XXSP,2013-03-31 09:00:00,
2013-03-31 05:05:00,41.4,28.9,29.78,SSE,157,0.0,0.0,61,0.00,,,0.00,WUHU21623XXSP,2013-03-31 09:05:00,
2013-03-31 05:10:00,41.4,29.3,29.78,SSE,157,3.4,3.4,62,0.00,,,0.00,WUHU21623XXSP,2013-03-31 09:10:00,
2013-03-31 05:15:00,41.4,29.3,29.78,SSE,157,2.5,3.4,62,0.00,,,0.00,WUHU21623XXSP,2013-03-31 09:15:00,
2013-03-31 05:20:00,41.4,29.3,29.78,South,180,0.0,2.5,62,0.00,,,0.00,WUHU21623XXSP,2013-03-31 09:20:00,
2013-03-31 05:25:00,41.5,29.5,29.77,South,180,0.0,1.6,62,0.00,,,0.00,WUHU21623XXSP,2013-03-31 09:25:00,
2013-03-31 05:30:00,41.5,29.5,29.77,South,180,0.0,1.6,62,0.00,,,0.00,WUHU21623XXSP,2013-03-31 09:30:00,
2013-03-31 05:35:00,41.5,29.5,29.77,South,180,0.0,0.0,62,0.00,,,0.00,WUHU21623XXSP,2013-03-31 09:35:00,
2013-03-31 05:40:00,41.5,29.5,29.76,South,180,0.0,0.0,62,0.00,,,0.00,WUHU21623XXSP,2013-03-31 09:40:00,
2013-03-31 05:45:00,41.5,29.5,29.76,SSE,157,0.0,0.0,62,0.00,,,0.00,WUHU21623XXSP,2013-03-31 09:45:00,
2013-03-31 05:50:00,41.5,29.8,29.76,SSE,157,0.0,0.0,63,0.00,,,0.00,WUHU21623XXSP,2013-03-31 09:50:00,
2013-03-31 05:55:00,41.5,29.8,29.76,SSE,157,0.0,0.0,63,0.00,,,0.00,WUHU21623XXSP,2013-03-31 09:55:00,
2013-03-31 06:00:00,41.5,29.8,29.76,South,180,0.0,0.0,63,0.00,,,0.00,WUHU21623XXSP,2013-03-31 10:00:00,
2013-03-31 06:05:00,41.5,29.8,29.75,South,180,0.0,0.0,63,0.00,,,0.00,WUHU21623XXSP,2013-03-31 10:05:00,
2013-03-31 06:10:00,41.7,30.4,29.75,SSE,157,0.0,2.9,64,0.00,,,0.00,WUHU21623XXSP,2013-03-31 10:10:00,
2013-03-31 06:15:00,41.7,30.4,29.75,SSE,157,0.0,2.9,64,0.00,,,0.00,WUHU21623XXSP,2013-03-31 10:15:00,
2013-03-31 06:20:00,41.7,30.4,29.75,SSE,157,0.0,0.0,64,0.00,,,0.00,WUHU21623XXSP,2013-03-31 10:20:00,
2013-03-31 06:25:00,41.7,30.4,29.75,SSE,157,0.0,0.0,65,0.00,,,0.00,WUHU21623XXSP,2013-03-31 10:25:00,
2013-03-31 06:30:00,41.7,30.8,29.75,SSE,157,0.0,0.0,65,0.00,,,0.00,WUHU21623XXSP,2013-03-31 10:30:00,
2013-03-31 06:35:00,41.7,30.4,29.75,South,180,0.0,0.0,64,0.00,,,0.00,WUHU21623XXSP,2013-03-31 10:35:00,
2013-03-31 06:40:00,41.7,30.4,29.75,South,180,0.0,0.0,64,0.00,,,0.00,WUHU21623XXSP,2013-03-31 10:40:00,
2013-03-31 06:45:00,41.7,30.4,29.75,SSE,157,0.0,0.0,64,0.00,,,0.00,WUHU21623XXSP,2013-03-31 10:45:00,
2013-03-31 06:50:00,41.7,30.4,29.74,SSE,157,3.6,3.6,64,0.00,,,0.00,WUHU21623XXSP,2013-03-31 10:50:00,
2013-03-31 06:55:00,41.7,30.4,29.74,SSE,157,0.0,3.6,64,0.00,,,0.00,WUHU21623XXSP,2013-03-31 10:55:00,
2013-03-31 07:00:00,41.7,30.4,29.74,SSE,157,0.7,0.7,64,0.00,,,0.00,WUHU21623XXSP,2013-03-31 11:00:00,
2013-03-31 07:05:00,41.7,30.4,29.74,SSE,157,0.0,0.7,64,0.00,,,0.00,WUHU21623XXSP,2013-03-31 11:05:00,
2013-03-31 07:10:00,41.7,30.4,29.74,SSE,157,0.0,0.0,64,0.00,,,0.00,WUHU21623XXSP,2013-03-31 11:10:00,
2013-03-31 07:15:00,41.7,30.4,29.74,SSE,157,0.0,0.0,64,0.00,,,0.00,WUHU21623XXSP,2013-03-31 11:15:00,
2013-03-31 07:20:00,41.7,30.4,29.74,South,180,0.0,1.6,64,0.00,,,0.00,WUHU21623XXSP,2013-03-31 11:20:00,
2013-03-31 07:25:00,41.7,30.4,29.74,South,180,0.0,1.6,64,0.00,,,0.00,WUHU21623XXSP,2013-03-31 11:25:00,
2013-03-31 07:30:00,41.7,30.4,29.74,South,180,0.0,0.0,64,0.00,,,0.00,WUHU21623XXSP,2013-03-31 11:30:00,
2013-03-31 07:35:00,41.7,30.4,29.74,SSE,157,0.0,0.0,64,0.00,,,0.00,WUHU21623XXSP,2013-03-31 11:35:00,
2013-03-31 07:40:00,41.9,31.0,29.74,SSE,157,0.0,0.0,65,0.00,,,0.00,WUHU21623XXSP,2013-03-31 11:40:00,
2013-03-31 07:45:00,41.9,30.8,29.74,SSE,157,0.0,0.0,65,0.00,,,0.00,WUHU21623XXSP,2013-03-31 11:45:00,
2013-03-31 07:50:00,41.7,30.8,29.74,SSW,202,0.0,2.5,65,0.00,,,0.00,WUHU21623XXSP,2013-03-31 11:50:00,
2013-03-31 07:55:00,41.7,30.8,29.74,SSW,202,0.0,2.5,65,0.00,,,0.00,WUHU21623XXSP,2013-03-31 11:55:00,
2013-03-31 08:00:00,41.7,31.2,29.74,SSW,202,0.0,0.0,66,0.00,,,0.00,WUHU21623XXSP,2013-03-31 12:00:00,
2013-03-31 08:05:00,41.7,31.2,29.74,SSW,202,0.0,0.0,67,0.00,,,0.00,WUHU21623XXSP,2013-03-31 12:05:00,
2013-03-31 08:10:00,41.7,31.6,29.74,SSW,202,0.0,0.0,67,0.00,,,0.00,WUHU21623XXSP,2013-03-31 12:10:00,
2013-03-31 08:15:00,41.7,31.9,29.74,SSE,157,0.0,2.5,68,0.00,,,0.00,WUHU21623XXSP,2013-03-31 12:15:00,
2013-03-31 08:20:00,41.9,32.1,29.73,SSE,157,0.0,2.5,68,0.00,,,0.00,WUHU21623XXSP,2013-03-31 12:20:00,
2013-03-31 08:25:00,41.9,32.1,29.73,SW,225,0.0,1.8,68,0.00,,,0.00,WUHU21623XXSP,2013-03-31 12:25:00,
2013-03-31 08:30:00,41.9,32.1,29.73,SW,225,0.0,0.7,68,0.00,,,0.00,WUHU21623XXSP,2013-03-31 12:30:00,
2013-03-31 08:35:00,42.1,33.1,29.73,South,180,0.0,0.0,70,0.00,,,0.00,WUHU21623XXSP,2013-03-31 12:35:00,
2013-03-31 08:40:00,41.9,32.9,29.73,South,180,2.2,2.2,70,0.00,,,0.00,WUHU21623XXSP,2013-03-31 12:40:00,
2013-03-31 08:45:00,41.9,32.9,29.73,SSE,157,1.1,2.2,70,0.00,,,0.00,WUHU21623XXSP,2013-03-31 12:45:00,
2013-03-31 08:50:00,42.1,33.1,29.72,SSE,157,0.0,1.1,70,0.00,,,0.00,WUHU21623XXSP,2013-03-31 12:50:00,
2013-03-31 08:55:00,42.1,33.4,29.72,SSE,157,4.0,4.0,71,0.00,,,0.00,WUHU21623XXSP,2013-03-31 12:55:00,
2013-03-31 09:00:00,42.1,33.4,29.73,SSE,157,0.0,4.0,71,0.00,,,0.00,WUHU21623XXSP,2013-03-31 13:00:00,
2013-03-31 09:05:00,42.1,33.7,29.72,SSE,157,0.0,4.0,72,0.00,,,0.00,WUHU21623XXSP,2013-03-31 13:05:00,
2013-03-31 09:10:00,42.3,34.2,29.72,SSE,157,0.0,3.6,73,0.00,,,0.00,WUHU21623XXSP,2013-03-31 13:10:00,
2013-03-31 09:15:00,42.1,34.1,29.72,SSE,157,0.0,0.0,74,0.00,,,0.00,WUHU21623XXSP,2013-03-31 13:15:00,
2013-03-31 09:20:00,42.1,34.4,29.71,SSE,157,0.0,0.0,74,0.00,,,0.00,WUHU21623XXSP,2013-03-31 13:20:00,
2013-03-31 09:25:00,42.1,34.4,29.71,South,180,0.0,0.0,74,0.00,,,0.00,WUHU21623XXSP,2013-03-31 13:25:00,
2013-03-31 09:30:00,42.4,35.1,29.71,SSE,157,0.0,0.0,75,0.00,,,0.00,WUHU21623XXSP,2013-03-31 13:30:00,
2013-03-31 09:35:00,42.6,35.2,29.71,South,180,0.0,0.0,75,0.00,,,0.00,WUHU21623XXSP,2013-03-31 13:35:00,
2013-03-31 09:40:00,42.6,35.2,29.71,South,180,0.0,0.0,75,0.00,,,0.00,WUHU21623XXSP,2013-03-31 13:40:00,
2013-03-31 09:45:00,42.6,35.2,29.71,SSE,157,0.0,0.0,75,0.00,,,0.00,WUHU21623XXSP,2013-03-31 13:45:00,
2013-03-31 09:50:00,43.0,35.1,29.71,SSE,157,0.0,0.0,74,0.00,,,0.00,WUHU21623XXSP,2013-03-31 13:50:00,
2013-03-31 09:55:00,43.2,35.4,29.70,SSE,157,0.0,0.0,74,0.00,,,0.00,WUHU21623XXSP,2013-03-31 13:55:00,
2013-03-31 10:00:00,43.3,35.4,29.70,SSW,202,0.0,0.0,74,0.00,,,0.00,WUHU21623XXSP,2013-03-31 14:00:00,
2013-03-31 10:05:00,43.7,35.9,29.70,SSE,157,0.0,0.0,74,0.00,,,0.00,WUHU21623XXSP,2013-03-31 14:05:00,
2013-03-31 10:10:00,44.1,36.3,29.70,South,180,6.5,6.5,74,0.00,,,0.00,WUHU21623XXSP,2013-03-31 14:10:00,
2013-03-31 10:15:00,44.2,36.4,29.70,South,180,6.5,6.5,74,0.00,,,0.00,WUHU21623XXSP,2013-03-31 14:15:00,
2013-03-31 10:20:00,44.8,36.6,29.70,SW,225,5.1,6.5,74,0.00,,,0.00,WUHU21623XXSP,2013-03-31 14:20:00,
2013-03-31 10:25:00,45.0,37.1,29.70,SSW,202,1.6,5.1,74,0.00,,,0.00,WUHU21623XXSP,2013-03-31 14:25:00,
2013-03-31 10:30:00,45.1,37.3,29.70,SW,225,7.4,7.4,74,0.00,,,0.00,WUHU21623XXSP,2013-03-31 14:30:00,
2013-03-31 10:35:00,45.5,37.7,29.70,SW,225,5.4,7.8,74,0.00,,,0.00,WUHU21623XXSP,2013-03-31 14:35:00,
2013-03-31 10:40:00,45.5,37.9,29.70,SW,225,5.4,7.8,74,0.00,,,0.00,WUHU21623XXSP,2013-03-31 14:40:00,
2013-03-31 10:45:00,45.5,37.7,29.70,SW,225,2.0,5.4,74,0.00,,,0.00,WUHU21623XXSP,2013-03-31 14:45:00,
2013-03-31 10:50:00,45.7,37.9,29.70,SSW,202,0.0,5.4,74,0.00,,,0.00,WUHU21623XXSP,2013-03-31 14:50:00,
2013-03-31 10:55:00,45.7,37.9,29.70,SW,225,1.8,2.2,74,0.00,,,0.00,WUHU21623XXSP,2013-03-31 14:55:00,
2013-03-31 11:00:00,45.7,37.9,29.70,SW,225,2.0,2.0,74,0.00,,,0.00,WUHU21623XXSP,2013-03-31 15:00:00,
2013-03-31 11:05:00,45.7,38.2,29.70,SSW,202,0.0,2.0,75,0.00,,,0.00,WUHU21623XXSP,2013-03-31 15:05:00,
2013-03-31 11:10:00,45.7,37.9,29.70,SW,225,0.0,2.0,74,0.00,,,0.00,WUHU21623XXSP,2013-03-31 15:10:00,
2013-03-31 11:15:00,45.7,38.2,29.70,North,0,2.0,2.0,75,0.00,,,0.00,WUHU21623XXSP,2013-03-31 15:15:00,
2013-03-31 11:20:00,45.7,38.2,29.70,SW,225,7.4,7.4,75,0.00,,,0.00,WUHU21623XXSP,2013-03-31 15:20:00,
2013-03-31 11:25:00,45.9,38.7,29.70,SSW,202,5.6,7.4,76,0.00,,,0.00,WUHU21623XXSP,2013-03-31 15:25:00,
2013-03-31 11:30:00,45.7,38.6,29.70,SW,225,3.1,5.6,76,0.00,,,0.00,WUHU21623XXSP,2013-03-31 15:30:00,
2013-03-31 11:35:00,45.7,38.6,29.70,SW,225,5.4,8.7,76,0.00,,,0.00,WUHU21623XXSP,2013-03-31 15:35:00,
2013-03-31 11:40:00,45.7,38.9,29.70,SW,225,4.5,8.7,77,0.00,,,0.00,WUHU21623XXSP,2013-03-31 15:40:00,
2013-03-31 11:45:00,45.7,38.9,29.70,SSW,202,0.0,4.7,77,0.00,,,0.00,WUHU21623XXSP,2013-03-31 15:45:00,
2013-03-31 11:50:00,45.7,38.9,29.70,SW,225,3.6,3.6,77,0.00,,,0.00,WUHU21623XXSP,2013-03-31 15:50:00,
2013-03-31 11:55:00,45.7,38.9,29.70,SSW,202,5.6,5.6,77,0.00,,,0.00,WUHU21623XXSP,2013-03-31 15:55:00,
2013-03-31 12:00:00,45.7,38.9,29.70,SW,225,0.0,5.6,77,0.00,,,0.00,WUHU21623XXSP,2013-03-31 16:00:00,
2013-03-31 12:05:00,45.5,39.1,29.70,SW,225,2.9,7.6,78,0.00,,,0.00,WUHU21623XXSP,2013-03-31 16:05:00,
2013-03-31 12:10:00,45.5,39.1,29.70,SW,225,6.0,7.6,78,0.00,,,0.00,WUHU21623XXSP,2013-03-31 16:10:00,
2013-03-31 12:15:00,45.3,38.9,29.70,SW,225,2.9,6.9,78,0.00,,,0.00,WUHU21623XXSP,2013-03-31 16:15:00,
2013-03-31 12:20:00,45.3,38.9,29.70,SSW,202,6.5,7.8,78,0.00,,,0.00,WUHU21623XXSP,2013-03-31 16:20:00,
2013-03-31 12:25:00,45.5,39.1,29.70,SW,225,8.7,8.7,78,0.00,,,0.00,WUHU21623XXSP,2013-03-31 16:25:00,
2013-03-31 12:30:00,45.7,39.6,29.70,SW,225,2.7,8.7,79,0.00,,,0.00,WUHU21623XXSP,2013-03-31 16:30:00,
2013-03-31 12:35:00,45.9,39.4,29.70,SW,225,6.5,6.5,78,0.00,,,0.00,WUHU21623XXSP,2013-03-31 16:35:00,
2013-03-31 12:40:00,45.9,39.4,29.70,SW,225,2.5,6.5,78,0.00,,,0.00,WUHU21623XXSP,2013-03-31 16:40:00,
2013-03-31 12:45:00,46.0,39.6,29.70,SSW,202,6.9,6.9,78,0.00,,,0.00,WUHU21623XXSP,2013-03-31 16:45:00,
2013-03-31 12:50:00,46.6,39.4,29.70,SW,225,5.8,8.1,76,0.00,,,0.00,WUHU21623XXSP,2013-03-31 16:50:00,
2013-03-31 12:55:00,46.9,39.4,29.69,SW,225,8.1,8.1,75,0.00,,,0.00,WUHU21623XXSP,2013-03-31 16:55:00,
2013-03-31 13:00:00,47.3,39.1,29.70,SW,225,7.6,8.1,73,0.00,,,0.00,WUHU21623XXSP,2013-03-31 17:00:00,
2013-03-31 13:05:00,48.4,39.7,29.69,SW,225,6.0,7.6,72,0.00,,,0.00,WUHU21623XXSP,2013-03-31 17:05:00,
2013-03-31 13:10:00,48.4,39.0,29.69,SW,225,2.2,7.6,70,0.00,,,0.00,WUHU21623XXSP,2013-03-31 17:10:00,
2013-03-31 13:15:00,48.6,38.8,29.69,SW,225,8.3,8.3,69,0.00,,,0.00,WUHU21623XXSP,2013-03-31 17:15:00,
2013-03-31 13:20:00,49.6,39.1,29.68,SW,225,1.6,8.3,67,0.00,,,0.00,WUHU21623XXSP,2013-03-31 17:20:00,
2013-03-31 13:25:00,49.8,39.3,29.68,SW,225,7.6,8.3,67,0.00,,,0.00,WUHU21623XXSP,2013-03-31 17:25:00,
2013-03-31 13:30:00,50.7,39.7,29.69,SW,225,7.8,7.8,66,0.00,,,0.00,WUHU21623XXSP,2013-03-31 17:30:00,
2013-03-31 13:35:00,51.4,38.8,29.68,SW,225,2.9,8.3,62,0.00,,,0.00,WUHU21623XXSP,2013-03-31 17:35:00,
2013-03-31 13:40:00,51.6,38.9,29.67,SW,225,7.4,8.3,62,0.00,,,0.00,WUHU21623XXSP,2013-03-31 17:40:00,
2013-03-31 13:45:00,52.2,39.1,29.68,SW,225,5.4,7.8,61,0.00,,,0.00,WUHU21623XXSP,2013-03-31 17:45:00,
2013-03-31 13:50:00,53.2,39.3,29.67,SW,225,6.9,9.8,59,0.00,,,0.00,WUHU21623XXSP,2013-03-31 17:50:00,
2013-03-31 13:55:00,53.4,39.0,29.67,SW,225,3.1,9.8,58,0.00,,,0.00,WUHU21623XXSP,2013-03-31 17:55:00,
2013-03-31 14:00:00,54.1,39.6,29.67,SSW,202,7.6,7.6,58,0.00,,,0.00,WUHU21623XXSP,2013-03-31 18:00:00,
2013-03-31 14:05:00,54.3,38.9,29.67,SSW,202,2.0,7.6,56,0.00,,,0.00,WUHU21623XXSP,2013-03-31 18:05:00,
2013-03-31 14:11:00,54.3,37.9,29.67,SW,225,11.4,11.4,54,0.00,,,0.00,WUHU21623XXSP,2013-03-31 18:11:00,
2013-03-31 14:16:00,54.5,37.6,29.67,SSW,202,6.7,11.4,53,0.00,,,0.00,WUHU21623XXSP,2013-03-31 18:16:00,
2013-03-31 14:21:00,54.7,37.8,29.67,SW,225,8.3,8.3,53,0.00,,,0.00,WUHU21623XXSP,2013-03-31 18:21:00,
2013-03-31 14:26:00,55.0,38.1,29.67,SW,225,8.1,8.3,52,0.00,,,0.00,WUHU21623XXSP,2013-03-31 18:26:00,
2013-03-31 14:31:00,55.6,37.7,29.67,SSW,202,1.1,8.1,51,0.00,,,0.00,WUHU21623XXSP,2013-03-31 18:31:00,
2013-03-31 14:36:00,55.8,37.4,29.66,South,180,4.3,5.6,50,0.00,,,0.00,WUHU21623XXSP,2013-03-31 18:36:00,
2013-03-31 14:41:00,55.8,37.4,29.66,SW,225,4.0,11.0,50,0.00,,,0.00,WUHU21623XXSP,2013-03-31 18:41:00,
2013-03-31 14:46:00,56.1,37.8,29.66,SSW,202,11.4,11.4,50,0.00,,,0.00,WUHU21623XXSP,2013-03-31 18:46:00,
2013-03-31 14:51:00,56.1,36.6,29.66,SSW,202,3.1,11.4,48,0.00,,,0.00,WUHU21623XXSP,2013-03-31 18:51:00,
2013-03-31 14:56:00,56.3,36.2,29.66,SW,225,8.1,8.1,47,0.00,,,0.00,WUHU21623XXSP,2013-03-31 18:56:00,
2013-03-31 15:01:00,57.0,36.4,29.66,NNW,337,6.9,8.1,46,0.00,,,0.00,WUHU21623XXSP,2013-03-31 19:01:00,
2013-03-31 15:06:00,57.4,36.7,29.66,SSW,202,2.0,7.8,46,0.00,,,0.00,WUHU21623XXSP,2013-03-31 19:06:00,
2013-03-31 15:11:00,57.4,36.7,29.66,SW,225,2.7,7.8,46,0.00,,,0.00,WUHU21623XXSP,2013-03-31 19:11:00,
2013-03-31 15:16:00,57.4,36.7,29.65,SSW,202,0.0,6.9,46,0.00,,,0.00,WUHU21623XXSP,2013-03-31 19:16:00,
2013-03-31 15:21:00,57.6,36.9,29.65,SSW,202,2.2,6.9,46,0.00,,,0.00,WUHU21623XXSP,2013-03-31 19:21:00,
2013-03-31 15:26:00,57.7,37.0,29.65,NNW,337,7.2,7.2,46,0.00,,,0.00,WUHU21623XXSP,2013-03-31 19:26:00,
2013-03-31 15:31:00,57.7,36.4,29.65,SW,225,6.7,7.2,45,0.00,,,0.00,WUHU21623XXSP,2013-03-31 19:31:00,
2013-03-31 15:36:00,57.7,36.4,29.65,SW,225,6.5,7.2,45,0.00,,,0.00,WUHU21623XXSP,2013-03-31 19:36:00,
2013-03-31 15:41:00,57.7,36.0,29.65,SSW,202,4.5,6.7,45,0.00,,,0.00,WUHU21623XXSP,2013-03-31 19:41:00,
2013-03-31 15:46:00,57.9,36.6,29.65,SW,225,5.8,6.0,45,0.00,,,0.00,WUHU21623XXSP,2013-03-31 19:46:00,
2013-03-31 15:51:00,57.9,36.6,29.65,SW,225,1.8,5.8,45,0.00,,,0.00,WUHU21623XXSP,2013-03-31 19:51:00,
2013-03-31 15:57:00,57.9,36.6,29.65,SW,225,2.9,6.3,45,0.00,,,0.00,WUHU21623XXSP,2013-03-31 19:57:00,
2013-03-31 16:02:00,57.9,36.6,29.65,SW,225,7.6,7.6,45,0.00,,,0.00,WUHU21623XXSP,2013-03-31 20:02:00,
2013-03-31 16:07:00,58.1,36.2,29.65,SW,225,2.9,7.6,44,0.00,,,0.00,WUHU21623XXSP,2013-03-31 20:07:00,
2013-03-31 16:12:00,58.1,36.2,29.64,SW,225,2.2,8.7,44,0.00,,,0.00,WUHU21623XXSP,2013-03-31 20:12:00,
2013-03-31 16:17:00,58.8,36.8,29.64,SSW,202,8.3,9.6,44,0.00,,,0.00,WUHU21623XXSP,2013-03-31 20:17:00,
2013-03-31 16:22:00,58.8,36.3,29.64,SSW,202,5.6,9.6,43,0.00,,,0.00,WUHU21623XXSP,2013-03-31 20:22:00,
2013-03-31 16:27:00,58.8,36.3,29.64,SSW,202,8.1,8.1,43,0.00,,,0.00,WUHU21623XXSP,2013-03-31 20:27:00,
2013-03-31 16:32:00,59.2,36.0,29.64,SSW,202,6.7,8.1,42,0.00,,,0.00,WUHU21623XXSP,2013-03-31 20:32:00,
2013-03-31 16:37:00,59.5,36.3,29.64,SW,225,6.9,6.9,42,0.00,,,0.00,WUHU21623XXSP,2013-03-31 20:37:00,
2013-03-31 16:42:00,59.5,36.3,29.64,SSW,202,7.8,7.8,42,0.00,,,0.00,WUHU21623XXSP,2013-03-31 20:42:00,
2013-03-31 16:47:00,59.2,36.0,29.64,SW,225,7.6,7.8,42,0.00,,,0.00,WUHU21623XXSP,2013-03-31 20:47:00,
2013-03-31 16:52:00,59.0,35.9,29.63,SSW,202,4.7,7.8,42,0.00,,,0.00,WUHU21623XXSP,2013-03-31 20:52:00,
2013-03-31 16:57:00,59.4,36.2,29.64,SW,225,6.7,6.7,42,0.00,,,0.00,WUHU21623XXSP,2013-03-31 20:57:00,
2013-03-31 17:02:00,58.8,35.7,29.64,SSW,202,2.9,6.7,42,0.00,,,0.00,WUHU21623XXSP,2013-03-31 21:02:00,
2013-03-31 17:08:00,58.6,35.5,29.64,SW,225,8.7,8.7,42,0.00,,,0.00,WUHU21623XXSP,2013-03-31 21:08:00,
2013-03-31 17:13:00,58.3,35.8,29.64,SW,225,5.8,8.7,43,0.00,,,0.00,WUHU21623XXSP,2013-03-31 21:13:00,
2013-03-31 17:18:00,58.6,36.1,29.63,SW,225,3.1,5.8,43,0.00,,,0.00,WUHU21623XXSP,2013-03-31 21:18:00,
2013-03-31 17:23:00,58.5,35.9,29.63,SW,225,5.1,5.1,43,0.00,,,0.00,WUHU21623XXSP,2013-03-31 21:23:00,
2013-03-31 17:28:00,58.3,35.2,29.63,SW,225,6.5,8.5,42,0.00,,,0.00,WUHU21623XXSP,2013-03-31 21:28:00,
2013-03-31 17:33:00,57.7,34.7,29.63,North,0,2.7,8.5,42,0.00,,,0.00,WUHU21623XXSP,2013-03-31 21:33:00,
2013-03-31 17:38:00,57.7,35.3,29.63,SW,225,6.5,7.6,43,0.00,,,0.00,WUHU21623XXSP,2013-03-31 21:38:00,
2013-03-31 17:43:00,57.7,34.6,29.63,SSW,202,4.5,6.9,42,0.00,,,0.00,WUHU21623XXSP,2013-03-31 21:43:00,
2013-03-31 17:48:00,57.4,34.4,29.63,SW,225,6.9,8.3,42,0.00,,,0.00,WUHU21623XXSP,2013-03-31 21:48:00,
2013-03-31 17:53:00,56.8,33.9,29.63,SW,225,6.7,9.4,42,0.00,,,0.00,WUHU21623XXSP,2013-03-31 21:53:00,
2013-03-31 17:58:00,56.3,34.0,29.64,SW,225,7.2,9.4,43,0.00,,,0.00,WUHU21623XXSP,2013-03-31 21:58:00,
2013-03-31 18:03:00,55.6,33.9,29.64,SW,225,7.6,7.6,44,0.00,,,0.00,WUHU21623XXSP,2013-03-31 22:03:00,
2013-03-31 18:08:00,55.2,33.5,29.64,SW,225,11.2,11.2,44,0.00,,,0.00,WUHU21623XXSP,2013-03-31 22:08:00,
2013-03-31 18:13:00,55.0,33.4,29.64,SSW,202,2.5,11.2,44,0.00,,,0.00,WUHU21623XXSP,2013-03-31 22:13:00,
2013-03-31 18:18:00,54.3,33.3,29.64,SW,225,1.6,5.8,45,0.00,,,0.00,WUHU21623XXSP,2013-03-31 22:18:00,
2013-03-31 18:23:00,54.1,33.1,29.64,SW,225,2.7,5.8,45,0.00,,,0.00,WUHU21623XXSP,2013-03-31 22:23:00,
2013-03-31 18:28:00,54.0,33.5,29.64,SW,225,6.5,6.5,46,0.00,,,0.00,WUHU21623XXSP,2013-03-31 22:28:00,
2013-03-31 18:33:00,53.4,33.6,29.64,North,0,8.3,8.3,47,0.00,,,0.00,WUHU21623XXSP,2013-03-31 22:33:00,
2013-03-31 18:38:00,53.4,34.1,29.64,SSW,202,8.1,8.3,48,0.00,,,0.00,WUHU21623XXSP,2013-03-31 22:38:00,
2013-03-31 18:43:00,53.2,34.0,29.65,North,0,8.9,10.7,48,0.00,,,0.00,WUHU21623XXSP,2013-03-31 22:43:00,
2013-03-31 18:48:00,52.7,34.6,29.65,SSW,202,6.9,10.7,50,0.00,,,0.00,WUHU21623XXSP,2013-03-31 22:48:00,
2013-03-31 18:53:00,52.3,34.7,29.65,SSW,202,7.4,7.4,51,0.00,,,0.00,WUHU21623XXSP,2013-03-31 22:53:00,
2013-03-31 18:58:00,51.6,34.1,29.65,SW,225,8.7,8.7,51,0.00,,,0.00,WUHU21623XXSP,2013-03-31 22:58:00,
2013-03-31 19:03:00,51.3,35.1,29.65,SW,225,7.8,8.7,54,0.00,,,0.00,WUHU21623XXSP,2013-03-31 23:03:00,
2013-03-31 19:08:00,50.5,35.4,29.66,North,0,7.2,10.1,56,0.00,,,0.00,WUHU21623XXSP,2013-03-31 23:08:00,
2013-03-31 19:13:00,49.8,35.6,29.66,SSW,202,0.0,10.1,58,0.00,,,0.00,WUHU21623XXSP,2013-03-31 23:13:00,
2013-03-31 19:18:00,49.3,35.1,29.66,North,0,6.3,6.3,58,0.00,,,0.00,WUHU21623XXSP,2013-03-31 23:18:00,
2013-03-31 19:23:00,48.7,35.1,29.66,SW,225,0.0,6.3,59,0.00,,,0.00,WUHU21623XXSP,2013-03-31 23:23:00,
2013-03-31 19:28:00,48.4,35.2,29.66,SW,225,0.0,6.3,60,0.00,,,0.00,WUHU21623XXSP,2013-03-31 23:28:00,
2013-03-31 19:33:00,48.0,35.6,29.66,North,0,7.4,7.4,61,0.00,,,0.00,WUHU21623XXSP,2013-03-31 23:33:00,
2013-03-31 19:38:00,48.0,35.3,29.66,NNW,337,0.0,7.4,61,0.00,,,0.00,WUHU21623XXSP,2013-03-31 23:38:00,
2013-03-31 19:43:00,48.0,35.3,29.65,SW,225,3.8,3.8,61,0.00,,,0.00,WUHU21623XXSP,2013-03-31 23:43:00,
2013-03-31 19:48:00,47.7,34.9,29.66,SSW,202,0.0,7.4,61,0.00,,,0.00,WUHU21623XXSP,2013-03-31 23:48:00,
2013-03-31 19:53:00,47.5,34.7,29.65,SW,225,7.4,7.4,61,0.00,,,0.00,WUHU21623XXSP,2013-03-31 23:53:00,
2013-03-31 19:58:00,47.3,34.7,29.65,SW,225,0.0,7.4,61,0.00,,,0.00,WUHU21623XXSP,2013-03-31 23:58:00,
2013-03-31 20:03:00,46.9,34.6,29.66,SSW,202,0.0,8.3,62,0.00,,,0.00,WUHU21623XXSP,2013-04-01 00:03:00,
2013-03-31 20:08:00,46.8,34.4,29.66,North,0,7.4,8.3,62,0.00,,,0.00,WUHU21623XXSP,2013-04-01 00:08:00,
2013-03-31 20:13:00,46.4,34.1,29.66,SW,225,4.7,7.4,62,0.00,,,0.00,WUHU21623XXSP,2013-04-01 00:13:00,
2013-03-31 20:18:00,46.2,33.9,29.66,SW,225,5.4,5.4,62,0.00,,,0.00,WUHU21623XXSP,2013-04-01 00:18:00,
2013-03-31 20:23:00,46.0,33.3,29.66,SW,225,1.8,5.4,61,0.00,,,0.00,WUHU21623XXSP,2013-04-01 00:23:00,
2013-03-31 20:28:00,45.7,33.0,29.66,North,0,4.0,5.4,61,0.00,,,0.00,WUHU21623XXSP,2013-04-01 00:28:00,
2013-03-31 20:33:00,45.7,33.0,29.66,NNW,337,2.7,4.0,61,0.00,,,0.00,WUHU21623XXSP,2013-04-01 00:33:00,
2013-03-31 20:38:00,45.5,32.8,29.66,SSW,202,2.0,3.4,61,0.00,,,0.00,WUHU21623XXSP,2013-04-01 00:38:00,
2013-03-31 20:43:00,45.3,32.7,29.66,SSW,202,0.0,3.4,61,0.00,,,0.00,WUHU21623XXSP,2013-04-01 00:43:00,
2013-03-31 20:48:00,45.3,32.7,29.66,SW,225,0.0,0.0,61,0.00,,,0.00,WUHU21623XXSP,2013-04-01 00:48:00,
2013-03-31 20:53:00,45.1,32.9,29.66,SSW,202,0.0,0.0,62,0.00,,,0.00,WUHU21623XXSP,2013-04-01 00:53:00,
2013-03-31 20:58:00,45.1,32.9,29.66,North,0,2.0,2.0,62,0.00,,,0.00,WUHU21623XXSP,2013-04-01 00:58:00,
2013-03-31 21:03:00,45.0,33.1,29.66,North,0,0.0,2.0,63,0.00,,,0.00,WUHU21623XXSP,2013-04-01 01:03:00,
2013-03-31 21:08:00,45.0,33.5,29.66,SSW,202,0.0,0.0,64,0.00,,,0.00,WUHU21623XXSP,2013-04-01 01:08:00,
2013-03-31 21:14:00,45.0,33.9,29.67,North,0,0.0,0.0,65,0.00,,,0.00,WUHU21623XXSP,2013-04-01 01:14:00,
2013-03-31 21:19:00,44.8,33.7,29.67,NNW,337,4.0,4.0,65,0.00,,,0.00,WUHU21623XXSP,2013-04-01 01:19:00,
2013-03-31 21:24:00,44.8,34.1,29.67,SW,225,0.0,4.0,66,0.00,,,0.00,WUHU21623XXSP,2013-04-01 01:24:00,
2013-03-31 21:29:00,44.4,34.1,29.67,North,0,1.6,2.2,67,0.00,,,0.00,WUHU21623XXSP,2013-04-01 01:29:00,
2013-03-31 21:34:00,44.4,34.7,29.67,North,0,1.6,1.6,68,0.00,,,0.00,WUHU21623XXSP,2013-04-01 01:34:00,
2013-03-31 21:39:00,44.4,34.5,29.67,North,0,0.0,1.6,69,0.00,,,0.00,WUHU21623XXSP,2013-04-01 01:39:00,
2013-03-31 21:44:00,44.2,34.7,29.68,North,0,6.9,6.9,69,0.00,,,0.00,WUHU21623XXSP,2013-04-01 01:44:00,
2013-03-31 21:49:00,44.2,34.7,29.68,NNW,337,6.9,6.9,69,0.00,,,0.00,WUHU21623XXSP,2013-04-01 01:49:00,
2013-03-31 21:54:00,44.1,34.5,29.68,North,0,0.0,6.9,68,0.00,,,0.00,WUHU21623XXSP,2013-04-01 01:54:00,
2013-03-31 21:59:00,43.9,34.4,29.68,North,0,0.0,6.9,69,0.00,,,0.00,WUHU21623XXSP,2013-04-01 01:59:00,
2013-03-31 22:04:00,43.9,34.4,29.69,North,0,0.0,0.0,69,0.00,,,0.00,WUHU21623XXSP,2013-04-01 02:04:00,
2013-03-31 22:09:00,43.7,34.2,29.68,North,0,6.3,6.3,69,0.00,,,0.00,WUHU21623XXSP,2013-04-01 02:09:00,
2013-03-31 22:14:00,43.5,34.1,29.69,SW,225,3.6,6.3,69,0.00,,,0.00,WUHU21623XXSP,2013-04-01 02:14:00,
2013-03-31 22:19:00,43.5,34.1,29.68,SSW,202,0.0,3.6,69,0.00,,,0.00,WUHU21623XXSP,2013-04-01 02:19:00,
2013-03-31 22:24:00,43.5,34.1,29.69,North,0,0.0,8.1,69,0.00,,,0.00,WUHU21623XXSP,2013-04-01 02:24:00,
2013-03-31 22:29:00,43.3,33.9,29.68,North,0,7.2,8.1,69,0.00,,,0.00,WUHU21623XXSP,2013-04-01 02:29:00,
2013-03-31 22:34:00,43.2,33.3,29.68,SW,225,5.1,7.2,68,0.00,,,0.00,WUHU21623XXSP,2013-04-01 02:34:00,
2013-03-31 22:39:00,43.0,33.2,29.69,SW,225,5.4,5.4,68,0.00,,,0.00,WUHU21623XXSP,2013-04-01 02:39:00,
2013-03-31 22:44:00,43.0,32.8,29.69,SSW,202,0.0,5.4,67,0.00,,,0.00,WUHU21623XXSP,2013-04-01 02:44:00,
2013-03-31 22:49:00,43.0,32.8,29.69,SSW,202,0.0,1.8,67,0.00,,,0.00,WUHU21623XXSP,2013-04-01 02:49:00,
2013-03-31 22:54:00,42.6,32.0,29.69,SW,225,7.4,7.4,66,0.00,,,0.00,WUHU21623XXSP,2013-04-01 02:54:00,
2013-03-31 22:59:00,42.6,32.0,29.69,SSW,202,1.3,7.4,66,0.00,,,0.00,WUHU21623XXSP,2013-04-01 02:59:00,
2013-03-31 23:04:00,42.6,32.0,29.69,NNW,337,6.7,6.7,66,0.00,,,0.00,WUHU21623XXSP,2013-04-01 03:04:00,
2013-03-31 23:09:00,42.4,31.5,29.69,SW,225,5.1,8.1,65,0.00,,,0.00,WUHU21623XXSP,2013-04-01 03:09:00,
2013-03-31 23:14:00,42.4,31.9,29.69,SW,225,2.0,8.1,66,0.00,,,0.00,WUHU21623XXSP,2013-04-01 03:14:00,
2013-03-31 23:19:00,42.4,31.7,29.69,SSW,202,0.0,5.4,66,0.00,,,0.00,WUHU21623XXSP,2013-04-01 03:19:00,
2013-03-31 23:24:00,42.1,31.9,29.69,NNW,337,0.0,6.9,67,0.00,,,0.00,WUHU21623XXSP,2013-04-01 03:24:00,
2013-03-31 23:29:00,41.9,32.1,29.69,SSW,202,0.0,6.9,68,0.00,,,0.00,WUHU21623XXSP,2013-04-01 03:29:00,
2013-03-31 23:34:00,41.7,31.9,29.70,SSW,202,7.2,7.2,68,0.00,,,0.00,WUHU21623XXSP,2013-04-01 03:34:00,
2013-03-31 23:39:00,41.4,32.1,29.70,SSW,202,7.2,7.2,69,0.00,,,0.00,WUHU21623XXSP,2013-04-01 03:39:00,
2013-03-31 23:44:00,41.2,32.2,29.70,SSW,202,4.9,7.2,70,0.00,,,0.00,WUHU21623XXSP,2013-04-01 03:44:00,
2013-03-31 23:49:00,40.8,32.0,29.70,SSW,202,4.9,7.2,70,0.00,,,0.00,WUHU21623XXSP,2013-04-01 03:49:00,
2013-03-31 23:54:00,40.6,31.6,29.70,SW,225,1.6,4.9,70,0.00,,,0.00,WUHU21623XXSP,2013-04-01 03:54:00,
2013-03-31 23:59:00,40.5,31.8,29.70,SW,225,1.8,8.1,71,0.00,,,0.00,WUHU21623XXSP,2013-04-01 03:59:00,